Location: Wien
(48.2082°N, 16.3738°E)
Time: 22:30:54
(UTC+02:00)

EO-79 - Pass Details

Date: 27 March 2019
Orbit: 592 x 610 km, 97.9° (Epoch: 13 October)

Event Time Altitude Azimuth Distance (km) Brightness Sun altitude
Rises 00:34:55 0° 12° (NNE) 2,879 ? -38.8°
Reaches altitude 10° 00:37:06 10° 12° (NNE) 1,972 ? -38.8°
Enters shadow 00:37:25 12° 12° (NNE) 1,841 ? -38.7°
